Location: ??????????
(44.2167°N, 135.5333°E)
Time: 15:02:06
(UTC+00:00)

Cosmos 1975 Rocket - Pass Details

Date: 15 June 2025
Orbit: 597 x 628 km, 82.5° (Epoch: 15 July)

Event Time Altitude Azimuth Distance (km) Brightness Sun altitude
Exits shadow 17:02:34 23° 169° (S) 1,331 4.3 -16.7°
Maximum altitude 17:05:12 62° 95° (E) 707 3.4 -16.5°
Drops below altitude 10° 17:09:36 10° 15° (NNE) 2,007 6.9 -16.1°
Sets 17:11:51 0° 12° (NNE) 2,915 7.9 -15.9°
